QPF
0.00 0.01 0.01 0.01 0.00 0.00 0.00 0.00 0.01 0.01 0.01 0.03 0.06 0.10 0.14 0.13 0.13 0.08 0.02 0.01 0.01 0.00 0.00 0.00 0.00 0.00 0.00 0.00 0.00 0.00 0.00 0.00 0.00 0.00 0.00 0.00 0.00 0.00 0.00 0.00 0.00 0.00 0.02 0.07 0.10 0.14 0.18 0.14 0.12 0.12 0.12 0.10 0.12 0.22 0.25 0.29 0.35 0.36 0.38 0.36 0.25 0.12 0.04 0.02 0.00 0.00 0.00 0.00 0.00 0.00 0.00 0.00 0.00 0.00
0.01 0.01 0.01 0.00 0.00 0.00 0.00 0.01 0.01 0.01 0.01 0.02 0.03 0.05 0.08 0.11 0.15 0.10 0.06 0.02 0.00 0.00 0.00 0.00 0.00 0.00 0.00 0.00 0.00 0.00 0.00 0.00 0.00 0.00 0.00 0.00 0.00 0.00 0.00 0.00 0.00 0.00 0.00 0.02 0.06 0.10 0.14 0.18 0.14 0.10 0.06 0.11 0.09 0.10 0.20 0.26 0.34 0.33 0.44 0.46 0.43 0.24 0.11 0.04 0.01 0.00 0.00 0.00 0.00 0.00 0.00 0.00 0.00 0.00
0.01 0.02 0.01 0.00 0.00 0.01 0.01 0.01 0.01 0.01 0.01 0.02 0.03 0.04 0.06 0.08 0.10 0.10 0.08 0.07 0.02 0.00 0.00 0.00 0.00 0.00 0.01 0.00 0.00 0.00 0.00 0.00 0.00 0.00 0.00 0.00 0.00 0.00 0.00 0.00 0.00 0.00 0.00 0.00 0.02 0.05 0.08 0.16 0.18 0.14 0.08 0.06 0.09 0.07 0.09 0.14 0.26 0.28 0.41 0.62 0.48 0.45 0.27 0.12 0.04 0.01 0.00 0.00 0.00 0.00 0.00 0.00 0.00 0.00
0.01 0.02 0.01 0.01 0.02 0.02 0.03 0.03 0.02 0.01 0.01 0.01 0.03 0.03 0.05 0.07 0.07 0.08 0.11 0.10 0.03 0.00 0.00 0.01 0.01 0.00 0.01 0.01 0.00 0.00 0.00 0.00 0.00 0.00 0.00 0.00 0.00 0.00 0.00 0.00 0.00 0.00 0.00 0.00 0.01 0.02 0.04 0.09 0.19 0.16 0.12 0.08 0.08 0.05 0.09 0.08 0.11 0.18 0.24 0.52 0.65 0.54 0.43 0.26 0.14 0.03 0.01 0.00 0.00 0.00 0.00 0.00 0.00 0.00
0.01 0.01 0.02 0.02 0.02 0.03 0.04 0.05 0.05 0.04 0.03 0.03 0.03 0.03 0.03 0.05 0.05 0.07 0.09 0.10 0.04 0.01 0.00 0.01 0.02 0.01 0.01 0.01 0.01 0.00 0.00 0.00 0.00 0.00 0.00 0.00 0.00 0.00 0.00 0.00 0.00 0.00 0.00 0.00 0.00 0.01 0.02 0.04 0.11 0.15 0.14 0.09 0.08 0.05 0.02 0.04 0.05 0.06 0.10 0.21 0.38 0.62 0.52 0.34 0.28 0.11 0.02 0.01 0.00 0.00 0.00 0.00 0.00 0.00
0.01 0.02 0.03 0.03 0.04 0.04 0.04 0.06 0.06 0.05 0.04 0.03 0.03 0.03 0.03 0.03 0.04 0.04 0.09 0.09 0.05 0.02 0.00 0.01 0.02 0.03 0.01 0.01 0.01 0.01 0.00 0.00 0.00 0.00 0.00 0.00 0.00 0.00 0.00 0.00 0.00 0.00 0.00 0.00 0.00 0.00 0.00 0.02 0.03 0.19 0.13 0.12 0.09 0.04 0.04 0.03 0.02 0.03 0.02 0.07 0.14 0.34 0.57 0.45 0.29 0.27 0.10 0.03 0.01 0.02 0.00 0.00 0.00 0.00
0.02 0.03 0.03 0.04 0.05 0.05 0.06 0.06 0.05 0.05 0.05 0.03 0.03 0.03 0.02 0.03 0.03 0.03 0.06 0.08 0.07 0.02 0.01 0.01 0.02 0.03 0.03 0.02 0.02 0.01 0.00 0.00 0.00 0.00 0.00 0.00 0.00 0.00 0.00 0.00 0.00 0.00 0.00 0.00 0.00 0.00 0.00 0.00 0.01 0.03 0.10 0.10 0.10 0.06 0.03 0.01 0.01 0.03 0.01 0.01 0.04 0.11 0.28 0.52 0.41 0.26 0.22 0.12 0.05 0.03 0.00 0.00 0.00 0.00
0.02 0.03 0.05 0.05 0.05 0.05 0.06 0.06 0.06 0.06 0.04 0.03 0.04 0.04 0.03 0.04 0.04 0.02 0.04 0.07 0.06 0.02 0.01 0.01 0.02 0.03 0.04 0.04 0.02 0.02 0.01 0.00 0.00 0.00 0.00 0.00 0.00 0.00 0.00 0.00 0.00 0.00 0.00 0.00 0.00 0.00 0.00 0.00 0.00 0.00 0.04 0.06 0.08 0.07 0.04 0.02 0.01 0.01 0.01 0.02 0.03 0.03 0.07 0.29 0.48 0.42 0.25 0.21 0.11 0.04 0.02 0.00 0.00 0.00
0.02 0.04 0.04 0.05 0.05 0.04 0.05 0.07 0.08 0.06 0.04 0.04 0.06 0.06 0.05 0.04 0.03 0.04 0.04 0.06 0.07 0.05 0.02 0.01 0.02 0.03 0.05 0.07 0.06 0.03 0.02 0.01 0.01 0.00 0.00 0.01 0.00 0.00 0.00 0.00 0.00 0.00 0.00 0.00 0.00 0.00 0.00 0.00 0.00 0.00 0.00 0.03 0.04 0.05 0.04 0.03 0.02 0.01 0.00 0.01 0.01 0.05 0.02 0.08 0.32 0.55 0.50 0.27 0.21 0.10 0.06 0.02 0.01 0.00
0.02 0.03 0.05 0.05 0.04 0.04 0.05 0.08 0.07 0.06 0.05 0.05 0.07 0.07 0.08 0.06 0.04 0.04 0.04 0.06 0.07 0.06 0.02 0.01 0.02 0.04 0.06 0.07 0.08 0.06 0.03 0.03 0.01 0.01 0.01 0.01 0.01 0.01 0.00 0.00 0.00 0.00 0.00 0.00 0.00 0.00 0.00 0.00 0.00 0.00 0.00 0.00 0.01 0.02 0.03 0.02 0.02 0.01 0.00 0.01 0.03 0.02 0.02 0.02 0.07 0.30 0.56 0.52 0.27 0.19 0.10 0.05 0.03 0.01
0.01 0.02 0.05 0.06 0.05 0.04 0.06 0.07 0.08 0.08 0.05 0.05 0.07 0.07 0.06 0.04 0.03 0.03 0.03 0.05 0.06 0.05 0.03 0.02 0.02 0.03 0.04 0.06 0.05 0.07 0.08 0.04 0.02 0.01 0.01 0.01 0.02 0.01 0.01 0.01 0.00 0.00 0.00 0.00 0.00 0.00 0.00 0.00 0.01 0.00 0.00 0.01 0.00 0.00 0.01 0.01 0.01 0.01 0.00 0.00 0.00 0.04 0.03 0.02 0.01 0.07 0.24 0.54 0.56 0.30 0.17 0.10 0.08 0.05
0.01 0.01 0.03 0.05 0.05 0.05 0.07 0.08 0.08 0.09 0.08 0.07 0.07 0.06 0.05 0.03 0.02 0.02 0.03 0.04 0.05 0.05 0.03 0.02 0.03 0.04 0.05 0.08 0.08 0.06 0.10 0.10 0.06 0.03 0.02 0.02 0.02 0.02 0.02 0.01 0.01 0.01 0.01 0.00 0.00 0.00 0.00 0.00 0.00 0.00 0.01 0.00 0.00 0.00 0.00 0.00 0.00 0.00 0.00 0.00 0.00 0.01 0.02 0.01 0.01 0.02 0.05 0.19 0.48 0.55 0.40 0.23 0.11 0.08
0.01 0.01 0.02 0.04 0.05 0.05 0.06 0.07 0.08 0.09 0.09 0.11 0.11 0.09 0.06 0.05 0.04 0.04 0.05 0.05 0.05 0.06 0.05 0.04 0.04 0.06 0.07 0.08 0.11 0.12 0.12 0.12 0.07 0.04 0.04 0.04 0.03 0.03 0.03 0.03 0.02 0.02 0.02 0.02 0.01 0.00 0.00 0.00 0.00 0.00 0.00 0.00 0.00 0.00 0.00 0.00 0.00 0.00 0.00 0.00 0.00 0.00 0.00 0.01 0.00 0.01 0.01 0.05 0.18 0.35 0.50 0.49 0.26 0.15
0.00 0.01 0.01 0.02 0.03 0.04 0.04 0.06 0.07 0.08 0.09 0.10 0.10 0.13 0.13 0.10 0.08 0.08 0.10 0.10 0.09 0.08 0.07 0.05 0.07 0.07 0.07 0.06 0.09 0.09 0.08 0.09 0.11 0.08 0.06 0.05 0.07 0.06 0.05 0.04 0.04 0.03 0.03 0.03 0.02 0.01 0.00 0.00 0.00 0.00 0.00 0.00 0.00 0.00 0.00 0.00 0.00 0.00 0.00 0.00 0.01 0.00 0.00 0.00 0.00 0.01 0.01 0.02 0.05 0.11 0.19 0.39 0.53 0.29
0.01 0.01 0.00 0.01 0.02 0.02 0.03 0.04 0.05 0.07 0.08 0.08 0.07 0.09 0.11 0.12 0.13 0.14 0.13 0.13 0.14 0.14 0.11 0.09 0.09 0.08 0.08 0.09 0.10 0.10 0.12 0.14 0.17 0.11 0.10 0.11 0.13 0.11 0.09 0.07 0.06 0.05 0.04 0.03 0.03 0.03 0.01 0.00 0.00 0.00 0.00 0.00 0.00 0.00 0.00 0.00 0.00 0.00 0.00 0.00 0.00 0.00 0.00 0.00 0.00 0.00 0.01 0.01 0.02 0.04 0.05 0.09 0.23 0.46
0.01 0.01 0.00 0.00 0.01 0.02 0.02 0.03 0.04 0.05 0.06 0.05 0.05 0.06 0.09 0.11 0.11 0.12 0.19 0.16 0.11 0.12 0.13 0.13 0.12 0.12 0.10 0.10 0.11 0.12 0.14 0.15 0.16 0.16 0.14 0.13 0.12 0.11 0.10 0.08 0.07 0.06 0.05 0.04 0.04 0.04 0.03 0.02 0.00 0.00 0.00 0.00 0.00 0.00 0.00 0.00 0.00 0.00 0.00 0.00 0.00 0.00 0.00 0.00 0.00 0.00 0.00 0.00 0.01 0.01 0.03 0.05 0.06 0.14
0.01 0.01 0.01 0.01 0.01 0.01 0.01 0.02 0.04 0.06 0.04 0.03 0.03 0.04 0.06 0.08 0.08 0.08 0.11 0.11 0.12 0.09 0.08 0.10 0.11 0.10 0.13 0.11 0.12 0.13 0.13 0.13 0.14 0.14 0.12 0.10 0.09 0.08 0.08 0.09 0.09 0.08 0.08 0.06 0.06 0.05 0.05 0.04 0.02 0.01 0.00 0.00 0.00 0.00 0.00 0.00 0.00 0.00 0.00 0.00 0.00 0.00 0.00 0.00 0.00 0.00 0.00 0.00 0.00 0.01 0.01 0.01 0.03 0.06
0.00 0.01 0.01 0.01 0.01 0.01 0.01 0.02 0.05 0.05 0.05 0.02 0.02 0.03 0.04 0.05 0.05 0.06 0.05 0.05 0.05 0.05 0.07 0.08 0.07 0.09 0.09 0.08 0.11 0.11 0.10 0.11 0.12 0.12 0.10 0.10 0.09 0.08 0.07 0.09 0.12 0.14 0.13 0.10 0.09 0.07 0.06 0.05 0.04 0.03 0.01 0.00 0.00 0.00 0.00 0.00 0.00 0.00 0.00 0.00 0.00 0.00 0.00 0.00 0.00 0.00 0.00 0.00 0.00 0.00 0.00 0.01 0.01 0.02
0.01 0.01 0.01 0.01 0.01 0.01 0.01 0.02 0.03 0.04 0.04 0.02 0.01 0.02 0.03 0.03 0.03 0.04 0.03 0.03 0.03 0.04 0.04 0.06 0.09 0.08 0.07 0.07 0.07 0.07 0.07 0.08 0.09 0.09 0.09 0.09 0.09 0.09 0.10 0.11 0.11 0.11 0.10 0.11 0.11 0.11 0.07 0.06 0.05 0.04 0.03 0.02 0.01 0.00 0.00 0.00 0.00 0.00 0.00 0.00 0.00 0.00 0.00 0.00 0.01 0.00 0.00 0.00 0.00 0.00 0.00 0.00 0.00 0.00
0.01 0.01 0.01 0.01 0.01 0.02 0.01 0.02 0.02 0.03 0.02 0.01 0.01 0.01 0.02 0.02 0.02 0.02 0.02 0.02 0.02 0.04 0.06 0.07 0.07 0.06 0.05 0.07 0.07 0.07 0.07 0.06 0.06 0.06 0.05 0.06 0.07 0.06 0.05 0.05 0.04 0.05 0.05 0.05 0.06 0.05 0.06 0.07 0.06 0.05 0.04 0.04 0.03 0.02 0.01 0.00 0.00 0.00 0.00 0.00 0.00 0.00 0.00 0.00 0.00 0.00 0.00 0.00 0.00 0.00 0.00 0.00 0.00 0.00
0.01 0.01 0.01 0.01 0.03 0.03 0.02 0.02 0.02 0.02 0.01 0.01 0.00 0.01 0.01 0.01 0.01 0.01 0.01 0.01 0.00 0.01 0.01 0.02 0.02 0.02 0.03 0.04 0.05 0.07 0.07 0.07 0.07 0.06 0.05 0.05 0.04 0.04 0.03 0.02 0.02 0.02 0.02 0.03 0.03 0.03 0.03 0.03 0.04 0.06 0.07 0.05 0.04 0.04 0.03 0.02 0.01 0.00 0.00 0.00 0.00 0.00 0.00 0.00 0.00 0.00 0.00 0.00 0.00 0.00 0.00 0.00 0.00 0.00
0.01 0.01 0.01 0.01 0.05 0.04 0.02 0.02 0.02 0.02 0.01 0.01 0.00 0.01 0.01 0.00 0.00 0.01 0.01 0.01 0.00 0.00 0.00 0.01 0.01 0.02 0.03 0.03 0.05 0.06 0.08 0.08 0.07 0.05 0.05 0.07 0.05 0.04 0.03 0.03 0.02 0.02 0.02 0.02 0.02 0.03 0.03 0.02 0.03 0.04 0.06 0.06 0.06 0.05 0.04 0.04 0.03 0.02 0.01 0.00 0.00 0.00 0.00 0.00 0.00 0.00 0.00 0.00 0.00 0.00 0.00 0.00 0.00 0.00
0.01 0.01 0.01 0.01 0.04 0.04 0.02 0.02 0.01 0.02 0.01 0.01 0.01 0.01 0.01 0.01 0.01 0.00 0.00 0.00 0.00 0.00 0.00 0.00 0.00 0.02 0.02 0.02 0.02 0.03 0.05 0.06 0.06 0.05 0.04 0.05 0.04 0.03 0.03 0.03 0.04 0.04 0.03 0.02 0.03 0.03 0.02 0.03 0.04 0.04 0.06 0.07 0.06 0.04 0.04 0.04 0.04 0.04 0.03 0.02 0.01 0.00 0.00 0.00 0.00 0.00 0.00 0.00 0.00 0.00 0.00 0.00 0.00 0.00
0.00 0.00 0.01 0.01 0.03 0.03 0.02 0.02 0.01 0.02 0.01 0.01 0.01 0.01 0.01 0.02 0.02 0.01 0.00 0.00 0.00 0.00 0.00 0.00 0.00 0.00 0.01 0.01 0.01 0.02 0.02 0.02 0.02 0.02 0.02 0.02 0.02 0.02 0.02 0.02 0.02 0.02 0.02 0.02 0.02 0.02 0.02 0.02 0.03 0.04 0.04 0.04 0.04 0.04 0.04 0.04 0.04 0.04 0.04 0.03 0.03 0.02 0.01 0.00 0.00 0.00 0.00 0.00 0.00 0.00 0.00 0.00 0.00 0.00
0.00 0.01 0.01 0.02 0.03 0.03 0.02 0.02 0.01 0.02 0.01 0.01 0.01 0.02 0.02 0.02 0.02 0.01 0.00 0.00 0.00 0.00 0.00 0.00 0.00 0.00 0.00 0.00 0.00 0.00 0.01 0.00 0.00 0.00 0.01 0.01 0.02 0.02 0.01 0.01 0.01 0.01 0.01 0.03 0.03 0.02 0.02 0.02 0.03 0.04 0.04 0.03 0.03 0.03 0.03 0.03 0.04 0.04 0.04 0.04 0.04 0.03 0.02 0.02 0.01 0.01 0.00 0.00 0.00 0.00 0.00 0.00 0.00 0.00
0.00 0.01 0.01 0.02 0.02 0.02 0.02 0.02 0.01 0.01 0.01 0.01 0.01 0.01 0.01 0.01 0.01 0.01 0.00 0.00 0.00 0.00 0.00 0.00 0.00 0.00 0.00 0.00 0.00 0.00 0.00 0.00 0.00 0.00 0.00 0.00 0.00 0.01 0.01 0.01 0.01 0.01 0.01 0.02 0.03 0.03 0.02 0.02 0.02 0.02 0.02 0.02 0.02 0.01 0.02 0.02 0.03 0.03 0.03 0.04 0.03 0.03 0.03 0.03 0.02 0.02 0.01 0.01 0.00 0.00 0.00 0.00 0.01 0.01
0.00 0.00 0.01 0.01 0.01 0.01 0.01 0.01 0.01 0.01 0.01 0.01 0.01 0.01 0.01 0.00 0.00 0.00 0.00 0.00 0.00 0.00 0.00 0.00 0.00 0.00 0.00 0.00 0.00 0.00 0.00 0.00 0.00 0.00 0.00 0.00 0.00 0.00 0.00 0.01 0.01 0.01 0.00 0.02 0.04 0.03 0.03 0.02 0.01 0.01 0.01 0.01 0.01 0.01 0.01 0.01 0.01 0.01 0.02 0.02 0.02 0.02 0.03 0.03 0.03 0.02 0.02 0.02 0.02 0.01 0.01 0.00 0.01 0.01
0.00 0.00 0.00 0.01 0.01 0.01 0.01 0.01 0.01 0.01 0.01 0.01 0.01 0.01 0.00 0.00 0.00 0.00 0.00 0.00 0.00 0.00 0.00 0.00 0.00 0.00 0.00 0.00 0.00 0.00 0.00 0.00 0.00 0.00 0.00 0.00 0.00 0.00 0.00 0.00 0.01 0.01 0.00 0.01 0.02 0.02 0.03 0.02 0.01 0.01 0.01 0.01 0.01 0.01 0.01 0.00 0.00 0.01 0.01 0.01 0.01 0.01 0.01 0.01 0.02 0.02 0.02 0.02 0.02 0.03 0.02 0.02 0.01 0.01
0.00 0.00 0.00 0.00 0.01 0.01 0.01 0.01 0.01 0.01 0.01 0.01 0.01 0.01 0.00 0.00 0.00 0.00 0.00 0.00 0.00 0.00 0.00 0.00 0.00 0.00 0.00 0.00 0.00 0.00 0.00 0.00 0.00 0.00 0.00 0.00 0.00 0.00 0.00 0.00 0.00 0.00 0.01 0.01 0.01 0.02 0.02 0.02 0.02 0.02 0.02 0.01 0.00 0.00 0.00 0.00 0.00 0.00 0.00 0.01 0.01 0.01 0.01 0.01 0.01 0.01 0.01 0.01 0.02 0.03 0.03 0.03 0.02 0.02
0.00 0.00 0.00 0.00 0.01 0.01 0.01 0.01 0.01 0.01 0.01 0.01 0.01 0.00 0.00 0.00 0.00 0.00 0.00 0.00 0.00 0.00 0.00 0.00 0.00 0.00 0.00 0.00 0.00 0.00 0.00 0.00 0.00 0.00 0.00 0.00 0.00 0.00 0.00 0.00 0.00 0.00 0.00 0.00 0.01 0.01 0.02 0.02 0.02 0.02 0.03 0.02 0.00 0.00 0.00 0.00 0.00 0.00 0.00 0.00 0.00 0.00 0.00 0.00 0.00 0.00 0.01 0.01 0.01 0.01 0.01 0.02 0.02 0.02
0.00 0.00 0.00 0.00 0.00 0.00 0.00 0.00 0.00 0.00 0.00 0.00 0.00 0.01 0.01 0.01 0.01 0.01 0.00 0.00 0.00 0.00 0.00 0.00 0.00 0.00 0.00 0.00 0.00 0.00 0.00 0.00 0.00 0.00 0.00 0.00 0.00 0.00 0.00 0.00 0.00 0.00 0.00 0.00 0.00 0.01 0.01 0.01 0.01 0.02 0.02 0.02 0.01 0.00 0.00 0.00 0.00 0.00 0.00 0.00 0.00 0.01 0.01 0.00 0.00 0.00 0.00 0.00 0.00 0.00 0.01 0.01 0.01 0.01
0.00 0.00 0.00 0.00 0.00 0.00 0.00 0.00 0.00 0.00 0.00 0.00 0.00 0.00 0.00 0.01 0.00 0.00 0.00 0.00 0.00 0.00 0.00 0.00 0.00 0.00 0.00 0.00 0.00 0.00 0.00 0.00 0.00 0.00 0.00 0.00 0.00 0.00 0.00 0.00 0.00 0.00 0.00 0.00 0.00 0.01 0.01 0.01 0.02 0.02 0.01 0.01 0.02 0.01 0.00 0.00 0.00 0.00 0.00 0.00 0.00 0.00 0.00 0.00 0.00 0.00 0.00 0.00 0.00 0.01 0.01 0.01 0.01 0.01
0.00 0.00 0.00 0.00 0.00 0.00 0.00 0.00 0.00 0.00 0.00 0.00 0.00 0.00 0.00 0.00 0.00 0.00 0.00 0.00 0.00 0.00 0.00 0.00 0.00 0.00 0.00 0.00 0.00 0.00 0.00 0.00 0.00 0.00 0.00 0.00 0.00 0.00 0.00 0.01 0.00 0.00 0.00 0.00 0.01 0.01 0.01 0.01 0.01 0.01 0.02 0.01 0.01 0.02 0.02 0.00 0.00 0.00 0.00 0.00 0.00 0.00 0.00 0.00 0.00 0.00 0.00 0.01 0.01 0.01 0.01 0.01 0.00 0.00
0.00 0.00 0.00 0.00 0.00 0.00 0.00 0.00 0.00 0.00 0.00 0.00 0.00 0.00 0.00 0.00 0.00 0.00 0.00 0.01 0.01 0.00 0.00 0.00 0.00 0.00 0.00 0.00 0.00 0.00 0.00 0.00 0.00 0.00 0.00 0.00 0.00 0.00 0.01 0.01 0.00 0.00 0.01 0.01 0.01 0.02 0.03 0.03 0.02 0.02 0.02 0.03 0.04 0.03 0.03 0.02 0.01 0.00 0.00 0.00 0.00 0.00 0.00 0.00 0.00 0.00 0.01 0.01 0.01 0.02 0.01 0.01 0.01 0.00
0.00 0.00 0.00 0.00 0.00 0.00 0.00 0.00 0.00 0.00 0.00 0.00 0.00 0.00 0.00 0.00 0.00 0.00 0.00 0.01 0.01 0.01 0.01 0.01 0.00 0.00 0.00 0.01 0.01 0.01 0.00 0.00 0.00 0.00 0.00 0.00 0.00 0.01 0.02 0.03 0.02 0.01 0.01 0.01 0.01 0.02 0.03 0.06 0.07 0.06 0.04 0.04 0.05 0.04 0.03 0.02 0.01 0.01 0.00 0.00 0.00 0.00 0.00 0.00 0.00 0.00 0.00 0.00 0.01 0.01 0.01 0.01 0.01 0.00
0.00 0.00 0.00 0.00 0.00 0.00 0.00 0.00 0.00 0.00 0.00 0.00 0.00 0.00 0.00 0.00 0.00 0.00 0.01 0.01 0.01 0.01 0.01 0.01 0.01 0.01 0.01 0.01 0.01 0.01 0.01 0.01 0.01 0.01 0.00 0.00 0.00 0.01 0.01 0.02 0.02 0.02 0.02 0.02 0.02 0.03 0.04 0.04 0.06 0.07 0.05 0.04 0.03 0.03 0.02 0.01 0.01 0.01 0.01 0.01 0.00 0.00 0.00 0.00 0.00 0.00 0.00 0.00 0.00 0.00 0.01 0.01 0.01 0.01
0.00 0.00 0.00 0.00 0.00 0.00 0.00 0.00 0.00 0.00 0.00 0.00 0.00 0.00 0.00 0.00 0.00 0.00 0.01 0.00 0.00 0.01 0.01 0.01 0.01 0.01 0.01 0.01 0.01 0.01 0.01 0.01 0.01 0.01 0.01 0.00 0.00 0.00 0.01 0.01 0.01 0.02 0.03 0.03 0.03 0.04 0.04 0.04 0.05 0.05 0.05 0.04 0.02 0.01 0.00 0.00 0.00 0.00 0.00 0.00 0.00 0.00 0.00 0.00 0.00 0.00 0.00 0.00 0.00 0.00 0.00 0.00 0.00 0.00
0.00 0.00 0.00 0.00 0.00 0.00 0.00 0.00 0.00 0.00 0.00 0.00 0.00 0.00 0.00 0.00 0.00 0.00 0.00 0.00 0.00 0.00 0.00 0.01 0.01 0.01 0.01 0.01 0.02 0.01 0.01 0.01 0.01 0.01 0.01 0.01 0.00 0.00 0.01 0.01 0.02 0.01 0.02 0.02 0.03 0.02 0.02 0.01 0.02 0.03 0.03 0.03 0.02 0.01 0.00 0.00 0.00 0.01 0.00 0.00 0.00 0.00 0.00 0.00 0.00 0.00 0.00 0.00 0.00 0.00 0.00 0.00 0.00 0.00
0.00 0.00 0.00 0.00 0.00 0.00 0.00 0.00 0.00 0.00 0.00 0.00 0.00 0.00 0.00 0.00 0.00 0.00 0.00 0.00 0.00 0.00 0.00 0.00 0.00 0.01 0.01 0.01 0.01 0.01 0.01 0.01 0.01 0.01 0.02 0.01 0.01 0.01 0.01 0.00 0.01 0.02 0.02 0.02 0.03 0.03 0.03 0.02 0.01 0.01 0.01 0.01 0.01 0.00 0.00 0.00 0.00 0.00 0.00 0.00 0.00 0.00 0.00 0.00 0.00 0.00 0.00 0.00 0.00 0.00 0.00 0.00 0.00 0.00
0.00 0.00 0.00 0.00 0.00 0.00 0.00 0.00 0.00 0.00 0.00 0.00 0.00 0.00 0.00 0.00 0.00 0.00 0.00 0.00 0.00 0.00 0.00 0.00 0.00 0.00 0.00 0.00 0.00 0.01 0.01 0.01 0.01 0.01 0.01 0.02 0.02 0.02 0.01 0.01 0.01 0.01 0.03 0.03 0.02 0.02 0.06 0.08 0.05 0.05 0.03 0.01 0.00 0.00 0.00 0.00 0.00 0.00 0.00 0.00 0.00 0.00 0.00 0.00 0.00 0.00 0.00 0.00 0.00 0.00 0.00 0.00 0.00 0.00
0.00 0.00 0.00 0.00 0.00 0.00 0.00 0.00 0.00 0.00 0.00 0.00 0.00 0.00 0.00 0.00 0.00 0.00 0.00 0.00 0.00 0.00 0.00 0.00 0.00 0.00 0.00 0.00 0.00 0.00 0.00 0.00 0.00 0.01 0.01 0.01 0.01 0.02 0.02 0.02 0.02 0.02 0.01 0.02 0.03 0.02 0.01 0.04 0.07 0.09 0.09 0.05 0.03 0.02 0.01 0.01 0.00 0.00 0.00 0.00 0.00 0.00 0.00 0.00 0.00 0.00 0.00 0.00 0.00 0.00 0.00 0.00 0.00 0.00
0.00 0.00 0.00 0.00 0.00 0.00 0.00 0.00 0.00 0.00 0.00 0.00 0.00 0.00 0.00 0.00 0.00 0.00 0.00 0.00 0.00 0.00 0.00 0.00 0.00 0.00 0.00 0.00 0.00 0.00 0.00 0.00 0.00 0.00 0.00 0.00 0.00 0.00 0.00 0.01 0.01 0.01 0.02 0.01 0.02 0.02 0.01 0.01 0.01 0.01 0.02 0.04 0.04 0.03 0.02 0.01 0.00 0.00 0.00 0.00 0.00 0.00 0.00 0.00 0.00 0.00 0.00 0.00 0.00 0.00 0.00 0.00 0.00 0.00
0.00 0.00 0.00 0.00 0.00 0.00 0.00 0.00 0.00 0.00 0.00 0.00 0.00 0.00 0.00 0.00 0.00 0.00 0.00 0.00 0.00 0.00 0.00 0.00 0.00 0.00 0.00 0.00 0.00 0.00 0.00 0.00 0.00 0.00 0.00 0.00 0.00 0.00 0.00 0.00 0.00 0.00 0.01 0.01 0.01 0.00 0.01 0.01 0.01 0.00 0.00 0.01 0.03 0.04 0.02 0.01 0.00 0.00 0.00 0.00 0.00 0.00 0.00 0.00 0.00 0.00 0.00 0.00 0.00 0.00 0.00 0.00 0.00 0.00
0.00 0.00 0.00 0.00 0.00 0.00 0.00 0.00 0.00 0.00 0.00 0.00 0.00 0.00 0.00 0.00 0.00 0.00 0.00 0.00 0.00 0.00 0.00 0.00 0.00 0.00 0.00 0.00 0.00 0.00 0.00 0.00 0.00 0.00 0.00 0.00 0.00 0.00 0.00 0.00 0.00 0.00 0.00 0.00 0.00 0.00 0.00 0.00 0.00 0.00 0.01 0.00 0.00 0.01 0.02 0.02 0.02 0.01 0.00 0.00 0.01 0.00 0.00 0.00 0.00 0.00 0.00 0.00 0.00 0.00 0.00 0.00 0.00 0.00
0.00 0.00 0.00 0.00 0.00 0.00 0.00 0.00 0.00 0.00 0.00 0.00 0.00 0.00 0.00 0.00 0.00 0.00 0.00 0.00 0.00 0.00 0.00 0.00 0.00 0.00 0.00 0.00 0.00 0.00 0.00 0.00 0.00 0.00 0.00 0.00 0.00 0.00 0.00 0.00 0.00 0.00 0.00 0.00 0.00 0.00 0.00 0.00 0.00 0.00 0.00 0.00 0.00 0.00 0.00 0.00 0.01 0.03 0.02 0.01 0.00 0.00 0.00 0.04 0.10 0.01 0.00 0.00 0.00 0.00 0.00 0.00 0.00 0.00
MSLP
1012.61 1011.93 1011.29 1010.53 1009.81 1009.53 1009.05 1008.57 1008.05 1007.41 1006.65 1005.93 1005.25 1004.49 1003.73 1002.97 1002.65 1002.05 1001.09 999.57 999.09 998.49 998.41 998.45 997.85 998.05 998.05 998.13 998.21 998.41 998.53 998.57 998.89 999.17 999.29 999.41 999.49 999.65 999.93 1000.09 1000.17 1000.33 1000.49 1000.77 1001.17 1001.69 1002.05 1002.13 1002.21 1002.49 1002.53 1002.77 1003.01 1003.53 1003.97 1004.13 1004.25 1004.09 1003.65 1003.97 1004.25 1004.25 1004.61 1005.13 1005.65 1006.25 1006.73 1007.29 1007.73 1007.97 1008.09 1008.41 1008.81 1009.09
1012.21 1011.49 1010.85 1010.09 1009.61 1009.21 1008.73 1008.21 1007.65 1007.05 1006.33 1005.61 1004.93 1004.09 1003.05 1002.45 1002.17 1001.73 1001.33 999.81 998.77 998.33 997.97 997.97 997.85 997.77 997.85 997.85 997.97 998.05 998.13 998.21 998.57 998.85 999.01 999.13 999.21 999.33 999.53 999.73 999.81 999.93 1000.09 1000.37 1000.73 1001.09 1001.41 1001.61 1001.81 1001.89 1002.21 1002.45 1002.69 1003.21 1003.65 1003.93 1004.09 1004.37 1003.97 1003.81 1003.89 1004.37 1004.73 1005.01 1005.45 1005.93 1006.49 1006.97 1007.49 1007.81 1008.05 1008.33 1008.65 1008.89
1011.69 1011.13 1010.45 1009.81 1009.41 1008.93 1008.37 1007.85 1007.29 1006.65 1006.01 1005.21 1004.41 1003.57 1002.53 1001.69 1001.45 1001.21 1000.97 1000.33 998.45 998.17 997.93 997.69 997.61 997.57 997.53 997.61 997.69 997.77 997.81 997.93 998.29 998.57 998.73 998.77 998.81 999.01 999.25 999.41 999.49 999.53 999.73 1000.01 1000.37 1000.69 1000.97 1001.37 1001.61 1001.73 1001.85 1002.09 1002.41 1002.81 1003.01 1003.69 1004.09 1004.05 1004.17 1003.97 1003.93 1004.09 1004.53 1005.01 1005.41 1005.81 1006.17 1006.65 1007.17 1007.57 1007.89 1008.21 1008.49 1008.69
1011.21 1010.65 1010.05 1009.61 1009.21 1008.69 1008.13 1007.57 1006.93 1006.29 1005.57 1004.81 1004.01 1003.25 1002.09 1001.01 1000.65 1000.61 1000.45 1000.01 998.89 997.97 997.73 997.57 997.53 997.57 997.53 997.45 997.53 997.53 997.65 997.77 998.01 998.29 998.45 998.45 998.53 998.81 998.93 999.13 999.29 999.37 999.49 999.73 1000.01 1000.41 1000.77 1001.21 1001.53 1001.69 1001.65 1001.93 1002.49 1002.57 1002.81 1003.25 1003.85 1004.05 1004.05 1004.01 1003.97 1004.13 1004.57 1005.05 1005.41 1005.73 1006.05 1006.37 1006.81 1007.25 1007.61 1007.97 1008.33 1008.57
1010.89 1010.33 1009.93 1009.45 1008.97 1008.49 1008.01 1007.49 1006.89 1006.17 1005.29 1004.37 1003.69 1002.89 1001.85 1000.49 999.93 999.89 999.77 999.49 998.81 997.93 997.73 997.65 997.49 997.41 997.49 997.37 997.29 997.37 997.45 997.73 997.93 998.13 998.25 998.33 998.37 998.41 998.61 998.81 999.01 999.25 999.41 999.61 999.89 1000.25 1000.61 1001.01 1001.37 1001.57 1001.61 1001.85 1002.13 1002.33 1002.61 1002.93 1003.57 1003.85 1003.73 1003.49 1003.57 1003.97 1004.41 1004.85 1005.25 1005.69 1005.93 1006.13 1006.49 1006.89 1007.25 1007.65 1008.05 1008.37
1010.85 1010.25 1009.81 1009.29 1008.73 1008.33 1008.01 1007.41 1006.81 1006.01 1004.97 1004.17 1003.41 1002.61 1001.65 1000.29 999.37 999.13 999.21 998.97 998.81 998.01 997.61 997.61 997.37 997.37 997.37 997.29 997.13 997.21 997.33 997.57 997.85 998.01 998.09 998.13 998.17 998.29 998.33 998.53 998.73 998.97 999.17 999.41 999.65 1000.01 1000.29 1000.65 1001.05 1001.45 1001.61 1001.73 1001.97 1002.17 1002.37 1002.45 1002.89 1003.01 1002.77 1002.81 1003.25 1003.93 1004.37 1004.73 1005.09 1005.37 1005.73 1005.85 1006.21 1006.57 1006.89 1007.29 1007.69 1008.13
1010.77 1010.25 1009.77 1009.25 1008.89 1008.37 1007.85 1007.25 1006.49 1005.69 1004.77 1004.05 1003.45 1002.53 1001.49 1000.37 999.13 998.77 998.77 998.81 998.61 998.21 997.77 997.53 997.45 997.25 997.17 997.13 997.05 997.05 997.09 997.25 997.49 997.73 997.85 997.93 998.05 998.13 998.21 998.29 998.45 998.69 998.89 999.13 999.37 999.61 999.89 1000.13 1000.53 1001.01 1001.37 1001.61 1001.85 1001.97 1002.13 1002.33 1002.77 1003.13 1003.17 1003.17 1003.41 1003.89 1004.45 1004.53 1004.93 1005.13 1005.53 1005.65 1005.93 1006.29 1006.61 1006.97 1007.37 1007.77
1010.89 1010.33 1009.81 1009.41 1009.01 1008.41 1007.81 1006.97 1006.21 1005.41 1004.85 1004.29 1003.33 1002.41 1001.45 1000.81 999.57 998.61 998.53 998.49 998.37 998.13 997.89 997.49 997.41 997.13 997.13 996.93 997.01 997.01 997.09 997.17 997.45 997.53 997.69 997.85 997.93 998.01 998.09 998.17 998.29 998.45 998.69 998.89 999.13 999.37 999.61 999.81 1000.05 1000.33 1000.77 1001.09 1001.25 1001.53 1001.77 1002.13 1002.53 1002.93 1003.13 1003.21 1003.41 1003.77 1004.21 1004.49 1004.53 1005.01 1005.17 1005.57 1005.65 1005.97 1006.29 1006.73 1007.09 1007.49
1011.13 1010.53 1010.09 1009.53 1009.05 1008.41 1007.81 1007.01 1006.29 1005.69 1005.05 1004.21 1003.33 1002.49 1001.69 1000.97 1000.21 999.21 998.45 998.29 998.21 998.05 997.81 997.53 997.37 997.21 997.09 996.85 996.85 997.05 997.09 997.41 997.45 997.57 997.61 997.69 997.77 997.89 997.93 998.05 998.13 998.29 998.49 998.77 999.01 999.25 999.45 999.61 999.85 1000.05 1000.25 1000.53 1000.81 1001.09 1001.37 1001.69 1002.13 1002.53 1002.85 1003.09 1003.37 1003.61 1004.01 1004.33 1004.41 1004.57 1005.05 1005.21 1005.57 1005.77 1006.13 1006.49 1006.89 1007.25
1011.33 1010.77 1010.17 1009.61 1008.97 1008.29 1007.69 1007.05 1006.57 1005.89 1005.05 1004.13 1003.33 1002.57 1001.81 1001.13 1000.33 999.57 998.73 998.33 998.17 997.97 997.77 997.65 997.45 997.33 997.13 997.01 996.77 996.97 997.05 997.21 997.49 997.61 997.73 997.77 997.81 997.81 997.97 998.13 998.21 998.29 998.45 998.77 999.01 999.17 999.37 999.57 999.73 999.93 1000.17 1000.37 1000.65 1000.93 1001.17 1001.49 1001.81 1002.25 1002.73 1003.09 1003.29 1003.49 1003.89 1004.25 1004.33 1004.21 1004.57 1005.13 1005.33 1005.73 1006.01 1006.33 1006.69 1007.01
1011.41 1010.77 1010.17 1009.81 1009.33 1008.85 1008.21 1007.49 1006.65 1005.73 1004.93 1004.21 1003.45 1002.73 1002.01 1001.29 1000.49 999.73 999.01 998.33 998.09 997.93 997.73 997.49 997.37 997.33 997.05 996.93 996.93 996.89 996.97 997.09 997.25 997.45 997.65 997.81 997.85 997.81 997.81 998.13 998.45 998.41 998.49 998.65 998.77 998.89 999.01 999.21 999.57 999.81 1000.05 1000.33 1000.53 1000.85 1001.13 1001.33 1001.65 1002.13 1002.61 1002.97 1003.21 1003.53 1003.97 1004.17 1004.29 1004.01 1004.17 1004.77 1005.41 1005.57 1005.77 1006.09 1006.45 1006.77
1011.53 1010.93 1010.41 1009.89 1009.33 1008.69 1008.01 1007.33 1006.57 1005.85 1005.09 1004.37 1003.53 1002.81 1002.21 1001.37 1000.53 999.85 999.21 998.41 997.97 997.81 997.65 997.41 997.29 997.21 997.17 996.93 996.81 996.85 997.05 997.25 997.41 997.33 997.37 997.57 997.81 997.85 997.93 998.05 998.17 998.53 998.61 998.85 999.05 999.21 999.33 999.41 999.57 999.77 999.97 1000.13 1000.37 1000.61 1000.93 1001.25 1001.49 1001.85 1002.25 1002.73 1003.05 1003.33 1003.81 1004.13 1004.17 1003.93 1003.89 1004.33 1005.05 1005.49 1005.57 1005.85 1006.17 1006.53
1011.73 1011.25 1010.73 1010.17 1009.49 1008.69 1007.97 1007.25 1006.57 1005.93 1005.25 1004.45 1003.49 1002.73 1002.13 1001.53 1000.89 1000.09 999.37 998.45 997.77 997.61 997.45 997.25 997.21 997.17 997.09 997.01 996.85 996.85 996.97 997.21 997.05 997.21 997.13 997.49 997.69 997.85 997.89 998.13 998.33 998.37 998.57 998.97 999.21 999.37 999.41 999.53 999.65 999.81 1000.01 1000.09 1000.37 1000.73 1000.93 1001.13 1001.37 1001.57 1001.85 1002.33 1002.81 1003.13 1003.49 1003.85 1003.97 1003.97 1003.69 1003.89 1004.45 1005.33 1005.69 1005.77 1006.05 1006.37
1011.77 1011.45 1011.01 1010.41 1009.57 1008.81 1008.01 1007.33 1006.53 1005.77 1005.01 1004.29 1003.81 1003.29 1002.65 1001.97 1001.25 1000.45 999.73 998.73 997.89 997.37 997.29 997.09 997.01 997.05 996.97 997.05 997.13 996.97 996.85 996.89 997.01 997.01 997.13 997.25 997.85 998.01 998.01 998.25 998.33 998.49 998.41 998.77 999.25 999.57 999.69 999.73 999.93 1000.01 1000.01 1000.01 1000.25 1000.49 1000.85 1000.89 1001.05 1001.29 1001.57 1001.97 1002.45 1002.89 1003.13 1003.37 1003.61 1003.77 1003.81 1003.81 1004.17 1004.65 1005.17 1005.89 1006.25 1006.25
1011.77 1011.37 1011.05 1010.41 1009.57 1008.77 1008.01 1007.29 1006.49 1005.73 1004.93 1004.13 1003.65 1003.21 1002.65 1002.09 1001.61 1001.01 999.97 999.37 998.57 997.73 997.21 997.09 997.05 996.93 996.85 997.01 997.13 997.17 997.21 997.25 997.37 997.13 997.05 997.37 997.81 997.81 997.97 998.09 998.29 998.57 998.49 998.65 998.97 999.53 999.77 999.89 1000.05 1000.17 1000.21 1000.25 1000.29 1000.41 1000.49 1000.53 1000.77 1000.97 1001.33 1001.77 1002.21 1002.61 1002.85 1003.01 1003.25 1003.41 1003.61 1003.85 1003.97 1004.45 1005.01 1005.09 1005.81 1006.57
1012.05 1011.53 1010.93 1010.29 1009.49 1008.69 1007.89 1007.09 1006.33 1005.65 1004.77 1004.17 1003.81 1003.25 1002.73 1002.17 1001.65 1001.17 1000.61 1000.37 999.53 998.73 997.97 997.41 997.25 997.13 997.09 997.09 997.17 997.29 997.37 997.45 997.61 997.69 997.65 997.69 997.81 997.85 997.97 997.93 997.85 998.21 998.49 998.57 998.89 999.33 999.77 999.93 1000.01 1000.21 1000.29 1000.37 1000.37 1000.37 1000.41 1000.61 1000.77 1000.97 1001.21 1001.57 1002.01 1002.37 1002.61 1002.81 1002.93 1003.05 1003.25 1003.61 1003.97 1004.29 1004.69 1005.21 1005.29 1005.65
1012.37 1011.89 1011.13 1010.25 1009.49 1008.81 1007.93 1007.13 1006.41 1005.45 1004.65 1004.17 1003.73 1003.37 1003.01 1002.53 1001.97 1001.33 1000.81 1000.65 1000.49 999.69 998.81 998.41 997.97 997.85 997.73 997.45 997.53 997.45 997.37 997.45 997.53 997.69 997.77 997.89 997.93 998.01 998.05 998.05 997.89 998.45 998.57 998.57 998.77 999.05 999.73 999.89 999.93 999.97 1000.21 1000.33 1000.45 1000.57 1000.65 1000.73 1000.89 1001.01 1001.25 1001.49 1001.81 1002.17 1002.41 1002.53 1002.73 1002.97 1003.17 1003.41 1003.77 1004.21 1004.57 1005.01 1005.57 1005.65
1012.53 1012.09 1011.49 1010.61 1009.73 1009.05 1008.33 1007.33 1006.29 1005.41 1004.89 1004.65 1004.21 1003.69 1003.21 1002.61 1002.01 1001.49 1001.09 1000.65 1000.21 999.97 999.69 999.21 998.77 998.45 998.13 997.93 997.85 997.69 997.41 997.45 997.49 997.61 997.65 997.85 997.93 998.01 998.09 997.97 998.05 998.41 998.61 998.45 998.57 999.05 999.65 999.93 999.93 999.89 1000.05 1000.21 1000.37 1000.49 1000.61 1000.81 1000.97 1001.17 1001.29 1001.49 1001.69 1002.01 1002.29 1002.45 1002.53 1002.77 1003.09 1003.41 1003.69 1004.01 1004.37 1004.73 1005.21 1005.61
1012.65 1012.17 1011.65 1010.89 1010.05 1009.25 1008.45 1007.53 1006.49 1005.61 1005.17 1005.05 1004.65 1004.09 1003.29 1002.69 1002.45 1001.97 1001.45 1001.05 1000.65 1000.21 999.81 999.45 999.13 998.73 998.37 998.05 997.81 997.69 997.49 997.33 997.37 997.45 997.57 997.77 997.85 998.05 998.13 998.33 998.49 998.69 998.85 998.77 998.57 998.77 999.53 999.97 999.85 999.89 999.97 1000.09 1000.21 1000.37 1000.53 1000.69 1000.93 1001.13 1001.29 1001.41 1001.57 1001.81 1002.09 1002.33 1002.57 1002.73 1002.97 1003.41 1003.73 1003.97 1004.21 1004.57 1004.93 1005.29
1012.73 1012.21 1011.57 1010.81 1010.09 1009.25 1008.61 1007.69 1006.77 1006.05 1005.77 1005.45 1004.85 1004.25 1003.73 1003.13 1002.57 1002.25 1002.05 1001.65 1001.17 1000.77 1000.29 999.81 999.37 999.01 998.61 998.21 998.01 997.81 997.65 997.57 997.45 997.41 997.45 997.65 997.89 998.09 998.25 998.41 998.49 998.65 998.97 998.97 998.69 999.01 999.49 999.89 999.69 999.77 1000.01 1000.09 1000.05 1000.21 1000.41 1000.53 1000.77 1001.05 1001.25 1001.45 1001.61 1001.81 1002.01 1002.25 1002.41 1002.61 1002.85 1003.25 1003.65 1003.89 1004.17 1004.37 1004.69 1005.09
1012.77 1012.25 1011.57 1010.85 1010.09 1009.29 1008.81 1008.01 1007.17 1006.41 1006.21 1006.05 1005.49 1004.81 1004.37 1004.05 1003.49 1002.77 1002.13 1001.65 1001.25 1000.69 1000.29 999.85 999.41 998.89 998.49 998.29 998.13 998.05 997.89 997.77 997.65 997.61 997.69 997.89 997.97 998.01 998.05 998.33 998.45 998.57 998.85 998.97 998.89 998.81 999.17 999.77 999.73 999.81 999.97 1000.05 1000.01 1000.13 1000.21 1000.41 1000.61 1000.85 1001.09 1001.37 1001.57 1001.77 1001.97 1002.13 1002.29 1002.45 1002.65 1003.01 1003.37 1003.69 1003.93 1004.21 1004.45 1004.77
1013.05 1012.49 1011.77 1011.05 1010.17 1009.45 1008.97 1008.33 1007.65 1006.97 1006.73 1006.57 1006.09 1005.41 1004.89 1004.45 1003.97 1003.45 1002.85 1002.13 1001.41 1000.85 1000.49 1000.09 999.65 999.17 998.73 998.53 998.33 998.25 998.17 998.05 997.93 997.89 997.85 998.05 998.09 998.05 998.01 998.21 998.49 998.65 998.81 998.85 999.01 998.85 999.21 999.53 999.73 999.81 1000.25 1000.33 1000.25 1000.21 1000.29 1000.41 1000.53 1000.77 1001.01 1001.25 1001.45 1001.65 1001.81 1001.97 1002.13 1002.29 1002.45 1002.73 1003.05 1003.33 1003.65 1004.01 1004.41 1004.89
1013.25 1012.73 1012.09 1011.33 1010.45 1009.77 1009.25 1008.69 1008.01 1007.41 1007.09 1007.05 1006.69 1006.21 1005.85 1005.49 1005.01 1004.65 1004.21 1003.57 1002.73 1001.93 1001.29 1000.61 1000.05 999.53 999.25 998.93 998.81 998.69 998.57 998.45 998.29 998.21 998.21 998.29 998.25 998.25 998.33 998.41 998.65 998.81 998.97 998.81 999.05 999.13 999.45 999.37 999.65 999.65 1000.21 1000.53 1000.33 1000.37 1000.37 1000.45 1000.57 1000.73 1000.97 1001.25 1001.49 1001.65 1001.77 1001.89 1002.01 1002.17 1002.37 1002.61 1002.85 1003.13 1003.45 1003.81 1004.29 1004.77
1013.49 1013.05 1012.41 1011.73 1010.73 1010.09 1009.69 1009.25 1008.61 1008.05 1007.65 1007.57 1007.41 1006.85 1006.57 1006.13 1005.69 1005.45 1005.09 1004.53 1003.97 1003.41 1002.73 1002.09 1001.37 1000.97 1000.53 1000.09 999.77 999.53 999.37 999.21 999.09 998.85 998.61 998.53 998.49 998.57 998.57 998.69 998.61 998.57 998.57 998.81 999.05 999.05 999.25 999.29 999.45 999.65 999.57 999.77 1000.29 1000.45 1000.65 1000.65 1000.69 1000.81 1001.01 1001.25 1001.41 1001.57 1001.77 1001.93 1002.05 1002.13 1002.29 1002.49 1002.73 1002.97 1003.29 1003.65 1003.97 1004.41
1014.17 1013.53 1012.77 1012.21 1011.25 1010.53 1010.21 1009.77 1009.29 1008.69 1008.29 1007.97 1007.77 1007.25 1007.05 1006.81 1006.53 1006.05 1005.69 1005.13 1004.57 1004.09 1003.45 1002.77 1002.13 1001.73 1001.49 1001.21 1000.97 1000.69 1000.41 1000.17 999.93 999.65 999.33 999.09 998.93 998.85 998.85 998.89 999.01 998.93 998.89 998.97 999.05 999.09 999.29 999.37 999.49 999.73 999.89 999.69 999.81 1000.29 1000.69 1000.77 1000.93 1001.01 1001.13 1001.25 1001.37 1001.61 1001.73 1001.89 1001.97 1002.13 1002.29 1002.45 1002.65 1002.89 1003.21 1003.45 1003.77 1004.05
1014.85 1014.21 1013.45 1012.81 1011.89 1011.17 1010.73 1010.29 1009.89 1009.29 1008.85 1008.53 1008.25 1007.93 1007.61 1007.21 1006.77 1006.77 1006.57 1005.93 1005.29 1004.81 1004.25 1003.73 1003.29 1003.01 1002.77 1002.53 1002.13 1001.81 1001.49 1001.21 1000.77 1000.33 999.89 999.57 999.33 999.13 999.05 999.01 999.05 999.13 999.05 998.97 999.17 999.21 999.21 999.49 999.41 999.69 999.85 999.89 1000.13 1000.13 1000.45 1000.81 1001.01 1001.17 1001.29 1001.41 1001.45 1001.53 1001.65 1001.85 1002.01 1002.09 1002.17 1002.33 1002.57 1002.81 1003.05 1003.33 1003.65 1003.89
1015.53 1014.85 1014.21 1013.53 1012.73 1012.01 1011.49 1011.09 1010.69 1010.17 1009.65 1009.37 1008.97 1008.65 1008.25 1007.93 1007.53 1007.37 1007.01 1006.57 1006.09 1005.61 1005.21 1004.77 1004.53 1004.25 1004.01 1003.73 1003.45 1003.05 1002.49 1001.93 1001.41 1000.89 1000.37 999.85 999.45 999.21 999.09 999.09 999.09 999.09 999.09 999.13 999.21 999.25 999.29 999.25 999.41 999.49 999.61 999.69 999.77 1000.21 1000.05 1000.33 1000.73 1001.25 1001.37 1001.49 1001.53 1001.65 1001.73 1001.77 1001.89 1001.97 1002.13 1002.29 1002.45 1002.69 1003.01 1003.33 1003.57 1003.81
1016.21 1015.45 1014.77 1014.13 1013.45 1012.81 1012.37 1012.09 1011.73 1011.29 1010.65 1010.29 1009.81 1009.45 1009.13 1008.77 1008.29 1007.89 1007.57 1007.25 1006.97 1006.57 1006.09 1005.77 1005.61 1005.41 1005.09 1004.81 1004.41 1004.01 1003.49 1002.81 1002.09 1001.37 1000.69 1000.17 999.73 999.41 999.21 999.13 999.09 999.13 999.17 999.29 999.29 999.33 999.33 999.33 999.41 999.49 999.49 999.57 999.73 999.89 999.93 1000.45 1000.65 1000.85 1000.93 1001.41 1001.49 1001.61 1001.69 1001.77 1001.89 1002.05 1002.21 1002.29 1002.53 1002.77 1003.05 1003.33 1003.61 1003.97
1016.73 1016.01 1015.33 1014.69 1014.17 1013.65 1013.17 1012.97 1012.61 1012.29 1011.73 1011.17 1010.73 1010.33 1010.01 1009.61 1009.17 1008.73 1008.57 1008.29 1007.77 1007.33 1007.13 1006.97 1006.69 1006.41 1006.09 1005.81 1005.37 1004.73 1004.01 1003.25 1002.49 1001.81 1001.09 1000.53 1000.09 999.69 999.37 999.21 999.13 999.09 999.17 999.25 999.29 999.33 999.37 999.41 999.41 999.49 999.61 999.61 999.57 999.61 999.61 999.81 1000.29 1000.61 1000.77 1000.97 1001.25 1001.49 1001.65 1001.73 1001.81 1001.97 1002.17 1002.33 1002.49 1002.61 1002.69 1002.97 1003.45 1003.77
1017.13 1016.49 1015.93 1015.37 1014.93 1014.57 1014.05 1013.85 1013.49 1013.21 1012.77 1012.25 1011.77 1011.37 1011.05 1010.73 1010.21 1009.69 1009.33 1009.05 1008.65 1008.49 1008.21 1007.89 1007.57 1007.17 1006.57 1006.09 1005.65 1005.09 1004.41 1003.73 1003.17 1002.73 1002.17 1001.45 1000.65 1000.17 999.77 999.33 999.05 999.01 999.09 999.17 999.21 999.25 999.33 999.37 999.49 999.49 999.53 999.65 999.65 999.61 999.65 999.73 1000.09 1000.37 1000.65 1000.53 1000.73 1001.25 1001.49 1001.57 1001.69 1001.81 1002.05 1002.21 1002.37 1002.49 1002.61 1002.81 1003.09 1003.41
1017.65 1017.29 1016.77 1016.45 1016.09 1015.61 1015.01 1014.65 1014.33 1013.93 1013.41 1012.85 1012.45 1012.13 1011.81 1011.57 1011.13 1010.61 1010.13 1010.09 1009.89 1009.49 1009.05 1008.61 1008.21 1007.65 1007.13 1006.45 1005.61 1005.13 1004.69 1004.25 1003.77 1003.37 1002.93 1002.33 1001.57 1000.93 1000.33 999.85 999.25 998.93 998.81 999.01 999.09 999.17 999.21 999.29 999.41 999.41 999.57 999.69 999.73 999.65 999.69 999.69 999.73 1000.37 1000.65 1000.61 1000.49 1000.25 1000.85 1001.49 1001.65 1001.81 1001.89 1002.09 1002.33 1002.53 1002.73 1002.85 1003.05 1003.13
1018.45 1017.97 1017.49 1017.05 1016.49 1015.77 1015.05 1014.61 1014.33 1014.17 1014.01 1013.77 1013.37 1012.93 1012.49 1012.21 1011.85 1011.41 1010.97 1010.57 1010.33 1010.13 1009.89 1009.45 1008.81 1008.09 1007.37 1006.77 1006.29 1005.69 1005.09 1004.61 1004.09 1003.65 1003.29 1002.73 1002.01 1001.41 1000.77 1000.05 999.37 998.97 998.73 998.85 999.01 999.09 999.13 999.17 999.29 999.37 999.37 999.49 999.65 999.65 999.81 999.77 999.73 1000.05 1000.49 1000.65 1000.53 1000.57 1000.85 1001.09 1001.37 1001.65 1001.81 1002.01 1002.33 1002.49 1002.53 1002.69 1002.89 1003.13
1018.65 1018.01 1017.25 1016.73 1016.25 1016.09 1015.93 1015.53 1015.17 1014.89 1014.49 1014.25 1014.13 1013.73 1013.01 1012.85 1012.33 1011.81 1011.17 1010.81 1010.65 1010.45 1010.09 1009.69 1009.33 1008.85 1008.17 1007.53 1006.89 1006.33 1005.73 1005.17 1004.61 1003.97 1003.45 1002.89 1002.45 1001.65 1000.93 1000.25 999.57 999.17 998.97 998.73 998.89 999.05 999.13 999.13 999.21 999.25 999.29 999.37 999.41 999.49 999.65 999.89 999.93 1000.09 1000.17 1000.61 1000.73 1000.65 1000.89 1000.97 1001.09 1001.45 1001.73 1001.93 1002.09 1002.25 1002.53 1002.65 1002.69 1002.81
1019.25 1018.73 1018.53 1018.25 1017.97 1017.57 1017.09 1016.77 1016.37 1016.01 1015.73 1015.25 1014.69 1014.33 1013.89 1013.53 1013.09 1012.65 1012.25 1011.85 1011.57 1011.05 1010.65 1010.29 1009.73 1009.29 1008.89 1008.45 1007.77 1007.13 1006.53 1005.73 1005.05 1004.45 1003.81 1003.21 1002.65 1002.17 1001.53 1000.89 1000.13 999.41 999.01 998.85 998.73 998.93 999.05 999.17 999.21 999.29 999.29 999.37 999.45 999.45 999.45 999.61 999.73 1000.01 1000.17 1000.41 1000.65 1000.65 1000.85 1001.01 1001.09 1001.25 1001.29 1001.29 1001.61 1002.13 1002.37 1002.53 1002.69 1002.85
1019.53 1019.45 1019.17 1019.09 1018.89 1018.69 1018.41 1017.97 1017.65 1017.29 1016.77 1016.29 1015.85 1015.33 1014.85 1014.41 1013.93 1013.45 1012.97 1012.53 1012.25 1011.77 1011.25 1010.85 1010.61 1010.13 1009.77 1009.33 1008.61 1008.01 1007.41 1006.69 1005.77 1004.77 1004.17 1003.81 1003.37 1002.93 1002.41 1001.77 1000.93 1000.21 999.45 998.85 998.73 998.85 999.01 999.13 999.25 999.33 999.45 999.53 999.57 999.49 999.49 999.53 999.61 999.89 1000.17 1000.37 1000.49 1000.57 1000.81 1001.01 1001.05 1001.21 1001.25 1001.33 1001.41 1001.61 1001.93 1002.25 1002.53 1002.81
1020.13 1020.17 1020.05 1019.77 1019.61 1019.33 1018.97 1018.73 1018.49 1018.09 1017.73 1017.29 1016.85 1016.25 1015.49 1015.09 1014.81 1014.37 1013.81 1013.33 1013.09 1012.57 1011.97 1011.53 1011.13 1010.69 1010.21 1009.73 1009.29 1008.85 1008.21 1007.41 1006.45 1005.57 1004.97 1004.57 1004.17 1003.57 1003.05 1002.41 1001.85 1001.21 1000.41 999.65 998.97 998.77 998.85 998.97 999.05 999.17 999.25 999.37 999.41 999.41 999.25 999.29 999.49 999.53 999.77 1000.09 1000.37 1000.45 1000.69 1000.97 1001.01 1001.09 1001.21 1001.25 1001.33 1001.37 1001.65 1001.89 1002.13 1002.61
1020.85 1020.73 1020.65 1020.49 1020.29 1020.01 1019.69 1019.41 1019.09 1018.77 1018.49 1018.09 1017.61 1017.17 1016.61 1016.05 1015.53 1015.13 1014.57 1014.05 1013.65 1013.21 1012.81 1012.37 1011.89 1011.29 1010.85 1010.45 1010.01 1009.53 1008.93 1008.09 1007.29 1006.45 1005.89 1005.45 1004.97 1004.41 1003.73 1003.05 1002.57 1001.81 1001.13 1000.53 999.77 999.09 998.81 998.85 998.93 998.93 999.09 999.17 999.13 999.05 999.09 999.37 999.45 999.45 999.41 999.69 1000.09 1000.21 1000.45 1000.89 1001.05 1001.21 1001.09 1001.05 1001.33 1001.41 1001.41 1001.69 1001.93 1002.25
1021.37 1021.29 1021.01 1020.89 1020.69 1020.49 1020.25 1019.93 1019.57 1019.21 1018.85 1018.49 1018.13 1017.65 1017.21 1016.81 1016.25 1015.61 1014.93 1014.33 1014.01 1013.73 1013.29 1012.89 1012.49 1012.01 1011.57 1011.09 1010.53 1009.97 1009.37 1008.65 1007.97 1007.25 1006.69 1006.17 1005.61 1005.01 1004.45 1003.89 1003.01 1002.25 1001.73 1001.01 1000.21 999.37 998.89 998.73 998.77 998.85 998.81 998.97 999.01 999.05 999.21 999.41 999.49 999.37 999.37 999.37 999.69 1000.01 1000.21 1000.61 1000.93 1000.97 1001.13 1001.25 1001.21 1001.33 1001.53 1001.69 1001.73 1001.85
1021.85 1021.65 1021.49 1021.29 1021.09 1020.89 1020.53 1020.25 1020.01 1019.69 1019.37 1018.97 1018.53 1018.09 1017.61 1017.17 1016.61 1015.93 1015.25 1014.89 1014.69 1014.29 1013.89 1013.41 1012.97 1012.61 1012.21 1011.73 1011.25 1010.73 1009.97 1009.17 1008.45 1007.89 1007.41 1006.89 1006.25 1005.57 1004.89 1004.17 1003.53 1002.93 1002.45 1001.65 1000.77 1000.09 999.25 998.77 998.69 998.77 998.81 998.85 998.93 998.85 998.81 999.01 999.25 998.97 999.13 999.29 999.29 999.65 999.93 999.93 1000.21 1000.53 1000.81 1001.13 1001.33 1001.49 1001.61 1001.73 1001.81 1001.93
1022.29 1022.17 1021.93 1021.69 1021.41 1021.21 1020.97 1020.65 1020.33 1020.09 1019.77 1019.45 1019.17 1018.69 1018.21 1017.73 1017.17 1016.53 1015.89 1015.45 1015.17 1014.93 1014.61 1014.13 1013.65 1013.09 1012.65 1012.25 1011.69 1011.09 1010.53 1010.01 1009.41 1008.85 1008.29 1007.69 1007.01 1006.33 1005.69 1005.01 1004.53 1003.89 1003.25 1002.53 1001.77 1001.13 1000.61 1000.05 999.93 999.89 999.61 999.09 998.61 998.37 998.37 998.53 998.65 998.89 998.97 999.09 999.25 999.33 999.57 999.89 1000.09 1000.37 1000.73 1000.85 1001.17 1001.53 1001.65 1001.81 1001.89 1002.09
1022.37 1022.21 1022.09 1021.93 1021.69 1021.41 1021.17 1020.89 1020.65 1020.37 1020.05 1019.73 1019.45 1019.01 1018.69 1018.29 1017.77 1017.01 1016.61 1016.25 1015.93 1015.45 1014.97 1014.57 1014.13 1013.69 1013.21 1012.77 1012.21 1011.69 1011.09 1010.53 1010.05 1009.53 1008.93 1008.29 1007.57 1006.93 1006.29 1005.57 1004.97 1004.45 1004.01 1003.33 1002.77 1002.25 1001.69 1001.29 1000.85 1000.33 999.85 999.25 998.89 998.69 998.73 998.97 999.21 999.05 999.13 999.13 999.17 999.33 999.41 999.49 999.61 999.93 1000.13 1000.57 1000.93 1001.21 1001.41 1001.69 1001.85 1002.01
1022.65 1022.49 1022.29 1022.09 1021.85 1021.61 1021.33 1021.05 1020.77 1020.49 1020.21 1019.89 1019.57 1019.17 1018.81 1018.49 1018.17 1017.57 1017.25 1016.81 1016.45 1016.01 1015.57 1015.01 1014.57 1014.13 1013.69 1013.25 1012.73 1012.21 1011.73 1011.17 1010.61 1010.13 1009.61 1008.93 1008.17 1007.53 1006.93 1006.33 1005.73 1005.01 1004.61 1004.21 1003.65 1003.01 1002.17 1001.57 1000.97 1000.25 999.49 999.01 998.77 998.73 998.77 998.61 998.77 998.85 998.97 998.97 999.05 999.09 999.21 999.33 999.45 999.53 999.65 1000.05 1000.57 1000.97 1001.29 1001.73 1001.89 1002.01
1022.73 1022.57 1022.33 1022.13 1021.97 1021.73 1021.49 1021.17 1020.93 1020.65 1020.37 1020.05 1019.73 1019.37 1018.97 1018.57 1018.21 1017.73 1017.37 1016.97 1016.65 1016.29 1015.89 1015.49 1015.09 1014.69 1014.25 1013.77 1013.25 1012.81 1012.29 1011.65 1011.17 1010.77 1010.17 1009.45 1008.85 1008.33 1007.73 1007.09 1006.45 1005.85 1005.25 1004.53 1003.85 1003.25 1002.49 1001.77 1001.21 1000.65 999.77 999.09 998.77 998.65 998.61 998.41 998.41 998.45 998.57 998.73 998.81 998.97 999.13 999.21 999.29 999.41 999.53 999.57 999.57 999.73 1000.09 1000.49 1001.13 1001.49
1022.77 1022.57 1022.41 1022.21 1021.97 1021.73 1021.53 1021.29 1020.97 1020.77 1020.49 1020.21 1019.89 1019.57 1019.17 1018.77 1018.37 1018.05 1017.73 1017.37 1016.97 1016.61 1016.29 1015.97 1015.53 1015.09 1014.65 1014.17 1013.69 1013.25 1012.81 1012.21 1011.73 1011.25 1010.57 1009.89 1009.25 1008.73 1008.13 1007.49 1006.89 1006.29 1005.65 1004.97 1004.25 1003.57 1002.97 1002.45 1001.81 1001.17 1000.37 999.49 998.85 998.65 998.65 998.61 998.57 998.45 998.41 998.45 998.61 998.77 998.93 999.09 999.29 999.45 999.65 999.77 999.73 999.73 999.81 999.85 999.81 999.93
1022.89 1022.69 1022.49 1022.21 1021.97 1021.77 1021.53 1021.33 1021.09 1020.81 1020.53 1020.25 1019.89 1019.61 1019.29 1018.97 1018.61 1018.25 1017.93 1017.57 1017.25 1016.89 1016.57 1016.21 1015.85 1015.49 1015.09 1014.53 1013.97 1013.49 1013.01 1012.61 1012.29 1011.81 1011.13 1010.33 1009.61 1009.01 1008.45 1007.81 1007.09 1006.33 1005.77 1005.13 1004.57 1003.85 1003.29 1002.81 1002.09 1001.33 1000.57 999.77 999.17 998.93 998.69 998.57 998.53 998.49 998.49 998.41 998.49 998.65 998.81 999.05 999.37 999.61 999.69 999.65 999.45 999.65 999.77 999.85 999.89 1000.01
Thickness
5144 5151 5159 5169 5181 5191 5201 5213 5224 5235 5248 5260 5271 5282 5293 5302 5313 5324 5340 5360 5375 5382 5388 5396 5402 5407 5411 5416 5421 5425 5430 5435 5438 5442 5448 5453 5459 5463 5468 5473 5479 5486 5492 5498 5502 5505 5511 5517 5522 5527 5530 5535 5538 5538 5539 5543 5548 5554 5561 5564 5566 5569 5570 5569 5569 5569 5568 5569 5568 5571 5575 5577 5578 5580
5135 5142 5149 5158 5168 5179 5190 5203 5215 5227 5240 5253 5264 5277 5289 5298 5307 5317 5330 5349 5366 5375 5383 5391 5396 5402 5407 5411 5416 5421 5426 5431 5433 5438 5443 5448 5454 5459 5462 5468 5474 5481 5487 5493 5498 5503 5508 5513 5518 5523 5526 5530 5535 5535 5535 5538 5541 5545 5551 5558 5561 5562 5562 5563 5564 5564 5564 5564 5564 5566 5569 5571 5574 5575
5127 5133 5141 5149 5157 5168 5180 5193 5207 5220 5232 5246 5259 5271 5285 5295 5304 5314 5323 5338 5357 5369 5377 5385 5391 5396 5401 5406 5411 5417 5422 5426 5430 5434 5438 5444 5449 5453 5457 5463 5469 5476 5483 5488 5494 5499 5503 5508 5512 5517 5522 5526 5530 5532 5534 5533 5535 5539 5544 5551 5556 5556 5556 5556 5558 5558 5559 5560 5561 5562 5564 5566 5568 5571
5121 5127 5133 5140 5148 5158 5171 5184 5197 5212 5226 5240 5253 5265 5281 5295 5304 5311 5319 5331 5349 5362 5370 5378 5385 5390 5395 5401 5407 5413 5417 5421 5425 5429 5434 5438 5443 5448 5454 5459 5464 5471 5477 5483 5489 5493 5498 5502 5506 5511 5516 5521 5524 5528 5531 5530 5528 5531 5537 5542 5548 5550 5549 5548 5550 5552 5553 5555 5557 5558 5559 5561 5563 5565
5115 5120 5126 5132 5140 5150 5162 5175 5188 5203 5219 5233 5248 5260 5275 5292 5303 5309 5316 5326 5340 5353 5363 5370 5378 5385 5390 5396 5403 5408 5412 5416 5420 5424 5428 5433 5438 5445 5450 5454 5459 5465 5470 5476 5482 5487 5492 5496 5500 5505 5510 5515 5519 5523 5527 5528 5526 5527 5534 5540 5543 5543 5543 5542 5543 5544 5546 5549 5552 5554 5555 5557 5558 5560
5109 5114 5119 5126 5134 5142 5152 5165 5179 5195 5212 5227 5241 5255 5270 5287 5301 5309 5315 5322 5332 5344 5355 5363 5372 5379 5385 5391 5398 5403 5408 5412 5415 5418 5423 5428 5433 5439 5445 5450 5454 5459 5464 5470 5476 5481 5487 5491 5495 5500 5503 5508 5513 5517 5522 5526 5525 5526 5532 5538 5540 5538 5537 5538 5538 5538 5541 5545 5547 5549 5552 5554 5555 5556
5104 5108 5114 5120 5126 5135 5145 5158 5173 5189 5206 5220 5234 5249 5263 5279 5296 5305 5311 5317 5325 5335 5346 5356 5365 5373 5381 5387 5393 5398 5403 5407 5409 5414 5418 5423 5428 5433 5439 5445 5450 5454 5459 5465 5470 5475 5481 5487 5491 5496 5498 5502 5507 5511 5517 5522 5522 5521 5525 5531 5534 5533 5532 5533 5534 5534 5537 5540 5543 5545 5547 5549 5550 5552
5099 5103 5108 5114 5120 5129 5140 5154 5170 5185 5199 5213 5229 5244 5257 5270 5285 5298 5306 5313 5320 5328 5338 5348 5358 5368 5375 5382 5387 5392 5397 5401 5405 5409 5413 5417 5422 5427 5434 5439 5444 5450 5454 5459 5464 5470 5475 5481 5487 5491 5495 5499 5504 5508 5512 5517 5519 5519 5521 5526 5529 5528 5528 5529 5531 5532 5534 5536 5539 5540 5543 5544 5545 5548
5094 5098 5103 5110 5117 5126 5136 5149 5164 5178 5192 5208 5223 5238 5250 5263 5276 5291 5302 5310 5315 5322 5332 5341 5351 5360 5368 5377 5382 5386 5391 5395 5399 5404 5408 5412 5418 5422 5428 5434 5439 5444 5449 5453 5458 5463 5468 5473 5479 5486 5491 5496 5501 5505 5508 5512 5515 5517 5519 5521 5523 5524 5524 5525 5529 5531 5532 5533 5534 5536 5538 5540 5541 5543
5091 5096 5101 5107 5114 5123 5133 5144 5156 5171 5187 5203 5218 5231 5245 5257 5271 5284 5296 5305 5311 5318 5327 5335 5343 5352 5362 5370 5377 5381 5386 5390 5395 5398 5402 5406 5412 5418 5423 5426 5431 5437 5443 5448 5452 5457 5462 5467 5472 5479 5484 5489 5493 5499 5503 5506 5509 5511 5512 5515 5518 5519 5519 5521 5526 5530 5531 5530 5531 5532 5534 5536 5537 5540
5089 5094 5099 5104 5111 5118 5127 5137 5151 5166 5182 5197 5211 5225 5237 5251 5265 5277 5288 5299 5307 5314 5322 5330 5337 5345 5355 5363 5371 5376 5380 5385 5389 5393 5397 5401 5406 5412 5417 5420 5423 5429 5435 5440 5444 5450 5455 5460 5465 5471 5476 5481 5486 5491 5495 5500 5503 5504 5506 5508 5511 5514 5515 5516 5521 5527 5530 5528 5526 5528 5531 5532 5533 5536
5087 5092 5097 5102 5108 5117 5125 5136 5148 5162 5175 5190 5206 5219 5231 5245 5260 5270 5281 5293 5303 5309 5318 5326 5333 5340 5348 5357 5365 5370 5374 5378 5384 5390 5395 5398 5400 5405 5409 5413 5417 5421 5426 5430 5435 5440 5446 5451 5456 5462 5468 5474 5479 5483 5488 5492 5496 5498 5500 5503 5506 5509 5510 5512 5517 5524 5527 5527 5524 5525 5528 5530 5530 5531
5086 5089 5094 5100 5107 5116 5125 5135 5147 5158 5170 5185 5200 5213 5226 5239 5252 5263 5275 5288 5298 5306 5314 5322 5328 5334 5342 5349 5357 5364 5370 5374 5380 5386 5391 5394 5396 5399 5403 5406 5410 5414 5419 5422 5425 5430 5436 5442 5448 5454 5460 5467 5472 5476 5480 5485 5490 5494 5497 5498 5501 5504 5507 5508 5513 5519 5523 5526 5523 5520 5522 5525 5526 5527
5085 5088 5092 5098 5106 5115 5124 5134 5145 5155 5167 5181 5194 5206 5219 5232 5243 5255 5267 5280 5292 5303 5311 5318 5324 5330 5337 5343 5350 5357 5364 5369 5374 5380 5385 5388 5389 5393 5397 5400 5404 5408 5413 5416 5418 5421 5427 5433 5439 5445 5452 5458 5463 5468 5474 5480 5485 5489 5491 5492 5494 5498 5502 5506 5510 5513 5517 5520 5521 5519 5518 5519 5519 5521
5084 5087 5091 5097 5106 5115 5123 5134 5144 5154 5166 5179 5191 5202 5214 5226 5236 5247 5259 5270 5282 5295 5305 5313 5319 5326 5332 5337 5343 5349 5354 5360 5364 5371 5377 5381 5384 5388 5393 5397 5400 5403 5407 5411 5412 5414 5418 5424 5430 5436 5442 5448 5454 5462 5468 5474 5478 5481 5484 5486 5487 5490 5495 5501 5505 5509 5512 5514 5516 5516 5516 5516 5516 5515
5081 5085 5090 5097 5105 5114 5124 5134 5144 5154 5166 5177 5188 5198 5210 5221 5231 5242 5252 5260 5270 5283 5296 5305 5312 5319 5325 5330 5335 5341 5346 5351 5355 5361 5367 5372 5378 5384 5388 5393 5397 5398 5401 5405 5407 5408 5411 5416 5422 5428 5433 5439 5445 5452 5458 5463 5468 5472 5475 5478 5480 5482 5487 5493 5499 5504 5507 5509 5510 5511 5512 5513 5513 5512
5078 5082 5088 5096 5104 5113 5122 5133 5144 5155 5164 5174 5184 5194 5204 5215 5227 5237 5246 5253 5262 5272 5284 5294 5303 5309 5315 5321 5327 5334 5340 5345 5350 5355 5360 5366 5372 5377 5382 5388 5392 5393 5395 5399 5403 5404 5404 5409 5415 5420 5426 5431 5436 5442 5447 5452 5457 5462 5466 5469 5472 5474 5479 5485 5491 5497 5501 5503 5504 5506 5507 5506 5506 5507
5077 5080 5085 5093 5101 5110 5119 5131 5143 5154 5162 5168 5178 5188 5199 5210 5221 5230 5240 5249 5258 5267 5275 5285 5293 5300 5307 5314 5320 5327 5335 5341 5345 5351 5356 5360 5366 5371 5375 5381 5385 5387 5390 5395 5399 5400 5400 5402 5409 5414 5419 5424 5429 5433 5438 5443 5448 5452 5457 5460 5464 5467 5472 5478 5484 5489 5493 5496 5497 5500 5502 5502 5501 5501
5075 5079 5083 5090 5099 5107 5116 5127 5140 5151 5157 5163 5172 5183 5194 5205 5215 5223 5233 5242 5251 5260 5268 5277 5285 5293 5301 5309 5316 5323 5330 5337 5342 5347 5352 5356 5360 5364 5368 5373 5378 5382 5384 5389 5395 5397 5396 5397 5404 5409 5412 5417 5422 5426 5431 5436 5440 5445 5448 5453 5457 5461 5466 5471 5476 5481 5485 5488 5490 5492 5495 5496 5496 5496
5074 5078 5083 5090 5098 5106 5114 5123 5135 5145 5151 5157 5167 5178 5188 5198 5208 5218 5227 5235 5244 5253 5261 5271 5279 5288 5296 5304 5311 5318 5324 5330 5336 5342 5346 5350 5354 5358 5363 5368 5373 5376 5379 5384 5390 5394 5393 5393 5399 5403 5407 5412 5417 5421 5425 5429 5433 5437 5440 5445 5449 5454 5459 5463 5467 5472 5477 5480 5482 5485 5488 5490 5491 5491
5073 5077 5082 5089 5096 5104 5111 5120 5130 5139 5145 5151 5160 5171 5180 5189 5199 5211 5221 5231 5240 5249 5257 5265 5274 5283 5291 5299 5305 5311 5316 5322 5328 5334 5339 5343 5347 5353 5358 5363 5367 5371 5375 5378 5384 5389 5390 5390 5394 5398 5401 5406 5411 5415 5419 5423 5426 5429 5433 5437 5442 5446 5450 5454 5459 5464 5469 5472 5475 5478 5481 5484 5485 5485
5073 5076 5080 5087 5094 5102 5109 5116 5125 5133 5139 5144 5153 5164 5173 5181 5191 5202 5213 5223 5234 5244 5253 5261 5269 5277 5286 5293 5298 5303 5308 5314 5320 5326 5330 5335 5340 5346 5352 5356 5360 5364 5369 5373 5378 5383 5386 5387 5390 5393 5394 5397 5404 5409 5413 5417 5420 5423 5427 5430 5434 5438 5443 5447 5451 5456 5460 5464 5467 5470 5473 5476 5476 5477
5071 5074 5078 5084 5091 5098 5105 5112 5121 5128 5134 5139 5147 5156 5164 5172 5182 5191 5201 5211 5222 5232 5242 5251 5260 5268 5277 5284 5290 5295 5301 5306 5312 5318 5323 5328 5334 5340 5345 5350 5354 5358 5364 5368 5372 5377 5380 5383 5387 5390 5391 5393 5397 5402 5407 5411 5415 5418 5421 5424 5428 5432 5436 5440 5443 5448 5452 5456 5459 5463 5466 5468 5469 5470
5070 5073 5076 5082 5089 5095 5100 5107 5115 5123 5129 5134 5141 5150 5157 5165 5173 5182 5191 5201 5210 5219 5228 5239 5249 5257 5265 5273 5279 5286 5292 5299 5305 5311 5318 5324 5329 5334 5338 5343 5348 5353 5358 5362 5367 5370 5374 5378 5382 5386 5389 5393 5396 5397 5400 5405 5409 5413 5416 5419 5422 5425 5429 5432 5436 5440 5444 5447 5451 5455 5458 5461 5463 5466
5066 5070 5074 5079 5086 5092 5096 5102 5109 5117 5124 5129 5136 5145 5152 5159 5167 5175 5183 5192 5201 5210 5219 5229 5239 5246 5253 5260 5268 5275 5281 5288 5294 5302 5309 5316 5322 5327 5332 5336 5341 5346 5351 5355 5360 5364 5368 5372 5376 5379 5384 5389 5392 5394 5396 5398 5403 5406 5410 5414 5417 5420 5423 5426 5430 5434 5437 5440 5444 5447 5450 5453 5458 5461
5062 5066 5070 5075 5081 5087 5092 5098 5103 5111 5118 5124 5131 5139 5145 5153 5161 5168 5175 5184 5193 5201 5210 5219 5227 5233 5239 5247 5255 5262 5270 5277 5284 5291 5299 5306 5313 5319 5325 5331 5335 5339 5344 5350 5354 5359 5363 5367 5371 5374 5378 5383 5387 5389 5392 5394 5396 5399 5404 5407 5410 5414 5417 5420 5423 5426 5431 5434 5438 5441 5444 5446 5450 5454
5058 5062 5066 5071 5077 5083 5087 5092 5097 5104 5111 5117 5124 5131 5139 5147 5155 5161 5168 5176 5184 5192 5200 5208 5215 5220 5226 5233 5241 5249 5257 5265 5274 5282 5291 5299 5306 5313 5318 5324 5329 5333 5338 5343 5348 5352 5358 5362 5366 5370 5374 5378 5381 5384 5388 5391 5392 5394 5398 5401 5405 5407 5411 5414 5418 5421 5424 5427 5430 5433 5435 5438 5442 5445
5054 5058 5063 5067 5072 5077 5081 5086 5090 5096 5104 5110 5117 5124 5131 5139 5147 5154 5161 5167 5175 5183 5190 5197 5202 5207 5214 5221 5229 5237 5246 5255 5264 5274 5283 5292 5300 5307 5313 5318 5323 5327 5332 5337 5342 5346 5351 5356 5360 5365 5369 5373 5377 5380 5384 5386 5388 5390 5393 5395 5398 5402 5405 5409 5411 5414 5417 5420 5423 5425 5428 5432 5435 5436
5051 5055 5060 5064 5068 5073 5077 5080 5085 5089 5096 5103 5109 5116 5123 5130 5139 5145 5151 5158 5165 5172 5179 5185 5191 5197 5204 5210 5218 5226 5237 5247 5257 5266 5275 5284 5292 5300 5307 5313 5318 5322 5326 5330 5335 5340 5345 5349 5353 5357 5362 5367 5372 5376 5380 5382 5384 5385 5389 5392 5394 5397 5399 5403 5406 5409 5411 5414 5417 5420 5425 5428 5429 5430
5048 5052 5057 5060 5063 5067 5071 5075 5079 5083 5089 5095 5102 5109 5114 5121 5129 5136 5143 5149 5156 5162 5168 5174 5181 5188 5195 5203 5211 5220 5229 5239 5247 5255 5263 5273 5282 5291 5299 5306 5313 5317 5321 5325 5329 5334 5338 5342 5346 5350 5355 5359 5364 5369 5374 5378 5380 5380 5384 5389 5391 5393 5394 5397 5401 5404 5406 5409 5412 5415 5419 5421 5422 5425
5044 5048 5051 5054 5057 5061 5066 5071 5075 5079 5085 5090 5096 5102 5108 5113 5120 5128 5134 5139 5145 5151 5158 5165 5172 5180 5188 5197 5206 5214 5222 5230 5239 5246 5253 5261 5271 5280 5289 5298 5307 5312 5317 5321 5324 5328 5333 5336 5339 5345 5348 5352 5356 5361 5366 5371 5375 5376 5377 5382 5387 5391 5392 5393 5395 5398 5401 5403 5405 5407 5410 5413 5417 5420
5040 5044 5048 5052 5056 5061 5066 5070 5073 5077 5081 5085 5090 5096 5102 5107 5113 5121 5128 5134 5139 5145 5151 5157 5165 5173 5182 5191 5198 5206 5214 5223 5231 5238 5245 5253 5262 5271 5281 5291 5300 5307 5312 5316 5319 5322 5326 5330 5334 5339 5343 5345 5349 5353 5356 5362 5367 5369 5370 5374 5380 5384 5387 5387 5389 5392 5394 5396 5398 5401 5405 5409 5412 5415
5038 5043 5047 5051 5055 5059 5062 5066 5069 5072 5076 5080 5085 5090 5096 5102 5108 5114 5122 5128 5133 5138 5144 5151 5158 5165 5173 5181 5189 5197 5205 5214 5222 5231 5238 5246 5255 5264 5273 5283 5292 5299 5305 5310 5313 5316 5319 5323 5327 5331 5335 5339 5342 5345 5350 5355 5359 5362 5364 5366 5371 5375 5378 5381 5383 5385 5387 5390 5394 5396 5399 5403 5407 5411
5037 5040 5043 5045 5047 5050 5053 5057 5061 5065 5069 5073 5079 5085 5090 5095 5101 5107 5113 5119 5124 5131 5137 5143 5150 5156 5163 5170 5178 5187 5195 5204 5213 5222 5230 5238 5246 5254 5263 5272 5282 5291 5298 5304 5308 5310 5313 5316 5320 5323 5326 5331 5334 5339 5345 5349 5352 5354 5356 5358 5362 5367 5369 5372 5375 5378 5382 5387 5390 5391 5394 5398 5401 5404
5035 5036 5037 5039 5041 5043 5046 5049 5052 5056 5061 5066 5071 5077 5083 5088 5093 5099 5106 5111 5116 5123 5129 5135 5141 5148 5154 5160 5168 5175 5183 5193 5203 5213 5222 5229 5236 5243 5251 5259 5269 5278 5287 5296 5302 5305 5307 5309 5312 5315 5319 5323 5327 5332 5339 5343 5345 5347 5349 5351 5355 5358 5360 5364 5367 5371 5375 5380 5384 5387 5390 5392 5394 5397
5031 5031 5032 5034 5036 5038 5041 5043 5046 5049 5054 5058 5063 5069 5076 5081 5086 5091 5097 5103 5108 5114 5121 5127 5133 5139 5146 5151 5158 5165 5172 5182 5193 5203 5211 5218 5224 5232 5240 5248 5256 5264 5274 5283 5291 5296 5300 5303 5307 5310 5313 5317 5321 5327 5332 5336 5338 5341 5344 5345 5347 5350 5353 5355 5358 5363 5368 5373 5377 5381 5384 5387 5389 5390
5029 5028 5028 5029 5031 5033 5035 5038 5041 5044 5048 5051 5056 5061 5067 5073 5078 5083 5090 5096 5101 5107 5113 5118 5124 5131 5137 5143 5149 5155 5163 5171 5181 5191 5198 5205 5213 5221 5229 5237 5245 5254 5262 5270 5279 5288 5293 5298 5301 5304 5308 5311 5316 5321 5325 5327 5329 5334 5338 5341 5342 5344 5345 5347 5350 5355 5360 5364 5369 5373 5376 5379 5380 5382
5026 5026 5026 5026 5027 5029 5031 5034 5037 5040 5043 5047 5051 5056 5060 5065 5071 5077 5084 5089 5095 5100 5105 5110 5116 5122 5127 5134 5140 5147 5155 5163 5171 5180 5187 5194 5202 5210 5218 5226 5235 5243 5251 5259 5268 5278 5286 5292 5295 5298 5302 5305 5310 5314 5316 5317 5321 5327 5331 5334 5335 5336 5338 5341 5345 5349 5352 5355 5359 5363 5366 5368 5371 5373
5024 5023 5023 5023 5024 5025 5028 5030 5032 5036 5039 5042 5046 5051 5056 5061 5066 5072 5078 5083 5087 5092 5097 5103 5108 5114 5119 5125 5131 5137 5145 5153 5161 5169 5176 5183 5190 5199 5208 5216 5224 5232 5239 5248 5257 5267 5276 5283 5287 5289 5293 5298 5304 5308 5309 5311 5315 5319 5321 5324 5328 5330 5333 5337 5340 5342 5344 5347 5350 5351 5353 5357 5359 5362
5023 5021 5021 5021 5021 5022 5024 5026 5028 5031 5035 5037 5041 5045 5050 5054 5060 5065 5072 5076 5080 5084 5089 5095 5100 5106 5112 5118 5124 5130 5137 5143 5150 5157 5165 5172 5180 5188 5196 5204 5212 5219 5227 5236 5244 5252 5260 5267 5271 5274 5279 5288 5295 5300 5302 5305 5309 5312 5315 5319 5323 5326 5329 5332 5334 5335 5337 5340 5341 5341 5344 5347 5350 5352
5023 5021 5020 5020 5020 5020 5022 5023 5025 5028 5031 5034 5037 5041 5044 5048 5053 5058 5064 5068 5072 5077 5082 5087 5093 5099 5104 5109 5116 5122 5128 5134 5141 5147 5154 5162 5170 5177 5185 5193 5201 5208 5215 5222 5230 5237 5245 5251 5257 5264 5272 5281 5288 5291 5295 5299 5303 5307 5310 5313 5317 5320 5323 5326 5328 5330 5332 5332 5332 5333 5337 5340 5342 5344
5023 5022 5020 5020 5019 5019 5020 5021 5023 5025 5028 5030 5034 5037 5041 5044 5048 5053 5057 5061 5065 5071 5076 5081 5085 5091 5096 5102 5108 5113 5119 5126 5132 5137 5144 5152 5159 5166 5174 5181 5189 5196 5203 5210 5217 5225 5234 5241 5249 5258 5268 5276 5281 5285 5290 5295 5299 5301 5303 5305 5309 5312 5315 5318 5321 5324 5325 5325 5327 5329 5332 5332 5333 5337
5024 5023 5021 5020 5019 5019 5019 5020 5021 5023 5025 5028 5031 5034 5037 5041 5045 5049 5053 5057 5061 5065 5069 5074 5079 5084 5089 5094 5100 5105 5111 5117 5123 5129 5135 5143 5149 5156 5163 5170 5177 5184 5192 5200 5208 5216 5225 5233 5241 5249 5259 5269 5275 5279 5284 5289 5292 5294 5296 5299 5301 5304 5307 5310 5313 5315 5318 5320 5325 5328 5330 5329 5331 5336
5026 5024 5022 5021 5020 5019 5019 5019 5020 5021 5022 5025 5028 5031 5034 5037 5041 5044 5048 5052 5056 5060 5064 5068 5072 5077 5082 5087 5093 5098 5104 5109 5114 5120 5127 5134 5141 5147 5154 5161 5168 5175 5183 5191 5198 5206 5214 5222 5230 5239 5249 5259 5267 5273 5277 5281 5284 5287 5291 5293 5295 5298 5301 5303 5305 5306 5309 5314 5319 5322 5324 5327 5331 5335
5029 5026 5024 5022 5021 5020 5019 5019 5019 5020 5021 5022 5025 5028 5031 5034 5037 5041 5044 5047 5051 5055 5059 5063 5067 5071 5076 5081 5086 5091 5097 5102 5107 5112 5119 5127 5134 5140 5147 5154 5162 5169 5176 5183 5189 5197 5204 5212 5220 5229 5239 5249 5258 5264 5269 5272 5276 5280 5283 5286 5289 5292 5294 5295 5297 5299 5303 5309 5314 5315 5315 5319 5323 5325